GFSFLT2_700_temp_141.txt.gz
Temp
11 11 11 10 10 10 9 9 9 9 9 9 8 8 7 7 6 6 6 6 6 6 6 5 5 4 3 3 2 3 3 3
11 10 10 10 10 10 9 9 9 9 8 8 8 8 7 7 6 6 6 6 5 5 6 5 4 4 3 3 2 2 2 2
10 10 10 10 10 10 9 9 9 8 8 8 8 8 7 7 6 6 6 6 5 5 6 5 4 3 3 3 2 2 2 1
10 10 10 9 9 9 9 9 9 8 8 8 8 8 7 7 6 6 6 6 5 5 5 5 5 4 3 3 2 2 1 1
10 9 9 9 9 9 9 9 9 9 8 8 8 8 7 7 7 6 6 6 5 5 5 5 5 4 3 2 2 2 1 1
9 9 9 9 9 8 8 8 8 8 8 8 8 7 7 7 7 6 6 6 6 5 5 5 5 5 3 3 2 2 1 1
9 9 9 8 8 8 8 8 8 8 8 8 8 7 7 7 7 6 6 6 5 5 5 5 5 5 4 3 2 2 1 2
8 8 8 8 8 7 7 7 7 7 7 8 7 7 7 7 7 6 6 6 5 5 5 5 5 4 4 3 3 2 2 2
7 7 7 7 7 7 7 7 7 7 7 7 7 7 7 7 7 6 6 6 5 5 5 5 4 4 4 4 3 2 2 2
7 7 7 7 6 7 7 7 7 7 7 7 7 7 7 7 6 6 6 6 5 5 5 5 4 4 4 4 3 3 2 1
6 7 7 7 7 7 7 7 7 7 7 7 7 7 7 7 6 6 6 6 6 5 5 5 5 4 3 3 3 3 2 2
5 6 6 7 7 7 7 8 7 7 7 7 7 6 6 6 6 6 6 6 6 6 5 5 4 4 3 3 3 3 3 2
5 5 5 6 6 7 7 8 8 7 7 6 6 6 6 6 6 6 6 5 6 5 5 4 4 4 3 3 3 3 3 3
5 5 5 5 6 7 7 7 8 8 7 6 5 5 5 5 5 5 5 5 5 5 5 5 5 4 3 3 3 3 4 3
4 5 5 6 6 6 7 7 7 7 7 6 5 3 4 3 4 4 4 4 5 5 5 5 5 4 3 3 3 4 4 3
5 5 5 5 6 6 7 7 7 7 6 6 5 4 4 3 3 2 2 3 4 5 5 5 4 4 3 3 4 4 4 4
5 5 4 5 6 6 7 7 7 6 6 5 4 3 4 3 2 1 1 1 3 4 4 4 4 4 4 4 4 4 3 5
3 5 4 5 5 6 6 6 5 4 4 4 3 3 3 3 4 3 3 2 3 3 3 3 3 4 4 3 4 4 4 4
2 3 4 4 5 4 4 5 4 4 2 2 1 1 2 3 4 3 3 3 3 3 3 3 3 3 4 4 4 4 4 4
1 2 2 2 2 3 3 2 4 4 3 1 1 3 3 3 4 4 3 3 3 3 3 3 3 3 3 4 4 3 3 3

GFSFLT2_700_temp_144.txt.gz
Temp
11 10 10 10 10 10 10 9 9 9 9 8 8 8 8 7 7 6 6 6 6 6 6 6 5 4 4 3 3 3 3 3
10 10 10 10 10 10 10 9 9 9 9 8 8 8 7 7 7 6 6 6 6 6 6 6 5 4 4 3 3 3 3 2
10 10 10 10 10 10 10 9 9 9 9 8 8 8 7 7 7 6 6 6 6 6 6 6 5 4 4 3 3 3 2 2
10 10 10 10 10 9 9 9 9 9 9 8 8 8 8 7 7 6 6 6 6 6 6 5 5 5 4 3 3 3 2 2
10 10 10 9 9 9 9 9 9 9 8 8 8 8 8 8 7 7 6 6 6 6 6 5 5 5 4 4 3 3 2 2
10 9 9 9 9 9 9 9 9 8 8 8 8 8 8 7 7 7 6 6 6 6 6 6 5 5 5 4 3 2 2 2
9 9 9 9 9 9 9 8 8 8 8 8 7 7 7 7 7 7 7 6 6 6 6 5 5 5 5 4 4 3 3 2
8 8 8 8 9 8 8 8 8 8 8 8 7 7 7 7 7 7 7 6 6 6 5 5 5 5 5 5 4 3 3 2
7 8 7 8 8 8 8 8 7 7 7 7 7 7 7 7 7 7 6 6 6 6 6 5 6 5 5 5 4 4 3 3
7 7 7 7 7 7 7 7 7 7 7 7 7 7 7 7 7 6 6 6 6 6 6 5 5 5 5 4 4 4 4 3
6 6 6 6 7 7 7 7 7 6 7 7 7 7 6 6 6 6 6 6 6 5 5 5 5 5 5 4 4 4 4 3
6 6 6 6 6 7 7 6 7 7 7 7 7 6 7 7 7 6 6 6 5 5 5 5 5 5 4 4 4 4 3 3
5 5 6 6 6 6 7 7 7 7 7 7 7 7 7 7 6 6 6 5 5 5 5 5 4 5 4 4 4 4 4 3
4 5 5 5 6 6 6 7 7 7 7 7 7 7 7 6 6 6 6 5 5 5 4 4 4 4 4 4 4 4 4 4
3 4 4 5 5 5 5 6 6 7 7 7 7 8 7 6 6 6 5 5 4 4 4 4 4 4 4 4 4 4 4 4
3 3 4 4 4 5 5 5 6 6 7 7 7 7 7 6 5 5 5 5 2 3 4 3 3 3 3 3 3 4 4 4
3 3 4 4 4 4 4 5 5 6 6 7 7 7 7 5 4 5 4 4 3 1 2 3 2 3 3 3 3 3 4 4
3 3 4 4 4 4 4 4 5 6 6 7 7 7 6 5 4 2 2 3 3 2 2 1 1 2 3 3 3 3 4 4
0 1 3 3 3 3 4 4 4 4 5 5 5 5 5 4 4 3 2 2 3 2 2 1 1 2 2 3 3 3 3 3
-2 0 1 1 2 3 4 4 4 4 4 2 3 4 4 4 4 4 1 2 2 2 2 2 1 1 2 2 3 3 3 3

GFSFLT2_700_temp_150.txt.gz
Temp
11 11 11 11 10 10 10 10 10 10 10 9 9 9 8 8 8 7 7 7 7 7 7 7 7 6 6 5 4 4 4 4
11 11 11 10 10 10 10 10 10 10 10 9 9 9 8 8 7 7 7 7 6 7 7 7 6 7 6 5 4 4 4 3
10 11 10 10 10 10 10 10 10 10 10 9 9 9 9 8 8 7 7 6 6 6 6 6 6 6 6 6 5 5 4 4
10 10 10 10 10 10 10 10 10 9 9 9 9 9 9 8 8 7 7 7 6 6 6 6 6 6 6 6 5 5 4 4
10 10 10 10 10 10 9 9 9 9 9 9 9 9 8 8 8 8 7 7 7 6 6 6 6 6 6 6 5 5 3 4
6 10 10 9 9 10 10 9 9 9 9 9 9 8 8 8 8 8 7 7 7 6 6 6 6 6 6 5 5 5 3 5
6 6 9 10 9 9 9 9 9 9 9 9 8 8 8 8 8 8 7 7 7 7 7 6 6 5 6 5 5 4 3 5
5 5 5 8 9 8 9 9 8 9 9 8 8 8 8 8 8 7 7 7 7 7 7 7 6 6 6 5 5 4 4 4
5 5 5 4 7 8 7 9 8 8 8 8 8 8 8 7 7 7 7 7 7 7 6 6 6 7 6 6 5 5 5 4
5 5 5 5 5 7 7 7 8 8 8 7 7 8 7 7 7 7 7 7 7 7 6 6 6 6 6 6 6 5 5 5
6 5 5 5 6 6 5 5 7 8 8 8 7 7 7 7 7 7 7 6 7 7 6 6 6 6 6 6 6 5 5 5
5 5 5 5 5 6 6 5 5 7 7 7 8 7 7 7 7 7 6 6 6 6 6 6 6 6 5 5 5 5 5 5
4 4 4 4 5 5 6 6 5 5 6 6 6 7 8 7 7 7 7 6 6 6 6 6 6 5 5 5 4 5 5 5
4 3 4 4 4 4 4 6 6 5 5 6 5 5 6 7 7 7 7 6 6 6 6 6 5 5 6 5 4 4 5 5
3 3 3 4 3 4 4 4 5 6 5 4 6 6 6 6 6 7 7 5 6 6 6 6 5 5 5 5 5 5 5 4
1 2 2 3 3 3 3 4 3 4 6 4 3 5 6 6 5 5 6 6 6 6 7 6 5 5 5 5 5 5 4 3
0 1 1 1 1 2 3 3 3 4 3 4 5 4 4 5 5 5 5 5 5 6 6 6 5 5 5 2 3 4 2 4
-0 -0 0 -0 0 0 1 2 3 3 3 3 3 3 3 5 4 4 5 5 4 4 4 5 5 4 4 2 3 3 5 2
-2 -1 -1 -1 -1 -1 -1 0 1 2 3 3 3 3 3 3 4 4 3 4 4 4 4 4 4 3 3 2 2 2 4 3
-3 -2 -2 -2 -2 -1 -2 -2 -2 0 1 2 3 3 3 3 3 4 3 3 3 3 3 3 3 3 1 1 1 1 2 1

GFSFLT2_700_temp_153.txt.gz
Temp
11 11 11 10 10 10 10 10 10 10 10 10 10 10 9 9 8 8 7 7 7 6 6 6 6 7 6 5 5 5 4 4
11 10 10 10 10 10 10 10 10 10 10 10 10 10 10 9 8 8 7 7 7 7 7 6 6 6 6 5 5 5 4 4
11 11 10 10 10 10 10 10 10 9 10 10 9 9 9 9 9 8 8 7 7 7 7 6 6 6 6 5 5 4 4 4
10 10 11 10 10 10 10 10 9 9 9 9 9 9 9 9 9 8 8 8 7 7 7 6 6 6 6 6 5 5 5 5
8 9 10 9 9 9 10 10 10 9 9 9 9 9 9 9 8 8 8 8 7 7 7 6 6 6 6 6 6 6 5 5
7 8 8 9 8 8 9 9 10 9 9 9 9 9 9 8 8 8 8 8 8 7 7 6 6 6 6 6 6 6 6 5
6 7 8 7 8 8 8 9 9 9 9 9 8 8 8 8 8 8 8 8 8 7 7 7 6 6 6 6 6 6 6 5
6 6 6 8 8 7 7 7 8 8 9 9 9 8 8 8 8 8 8 8 7 7 7 7 7 6 6 6 6 6 6 6
6 5 5 5 7 8 8 7 7 6 8 8 8 8 8 8 8 8 7 7 7 7 7 7 7 7 6 6 6 6 5 6
5 5 5 5 5 6 7 7 6 6 6 7 8 7 7 7 7 7 8 7 7 7 7 7 6 6 6 6 6 6 5 5
5 4 4 5 4 4 5 6 6 6 5 5 5 6 7 7 7 7 7 7 7 7 7 7 7 6 6 6 6 5 5 5
4 5 5 4 5 4 4 4 4 5 6 5 6 5 5 6 7 6 6 6 6 6 7 6 6 6 6 5 5 5 5 6
3 3 3 4 5 5 4 4 3 3 5 5 5 4 4 5 6 7 6 6 6 6 6 6 6 6 5 5 5 5 5 5
3 3 4 4 4 4 4 4 4 3 3 4 6 5 3 4 5 5 5 6 6 6 6 6 5 5 5 5 4 4 5 6
2 1 2 2 2 3 3 4 4 4 3 3 4 5 6 5 5 5 5 5 6 6 5 5 5 5 4 4 4 4 5 5
-0 0 0 -0 0 1 2 3 4 3 3 3 3 3 5 5 4 4 5 5 5 4 3 4 4 3 4 4 4 4 4 4
-1 -1 -1 -1 -0 -0 0 1 2 2 3 3 2 3 3 4 4 5 4 5 5 5 5 4 3 4 3 4 4 3 3 4
-2 -2 -2 -2 -1 -1 -1 -1 -1 1 2 2 3 3 3 3 3 3 4 5 4 5 4 4 4 4 3 3 3 3 3 3
-2 -3 -3 -3 -3 -2 -2 -1 -1 -1 -1 1 2 2 3 3 3 3 3 3 4 4 3 3 3 3 3 3 3 2 2 2
-4 -4 -3 -3 -4 -3 -3 -2 -2 -1 -2 -1 0 1 2 2 3 2 2 3 3 3 3 3 3 3 4 4 3 2 3 1

GFSFLT2_700_temp_159.txt.gz
Temp
10 10 10 9 9 9 9 9 10 10 10 9 9 9 9 9 9 8 8 8 7 7 7 6 6 6 6 6 6 5 5 5
10 10 10 10 10 9 9 9 9 9 9 9 9 9 9 9 9 8 8 8 7 7 7 6 6 6 6 6 6 6 5 5
9 9 10 9 9 9 9 9 8 8 9 9 9 9 9 8 8 8 8 8 7 7 7 6 6 6 6 6 6 6 5 5
8 8 8 8 8 8 8 9 9 8 7 8 8 9 9 8 8 8 8 8 8 7 7 6 6 6 6 6 6 6 6 6
7 7 7 7 7 7 7 8 8 8 8 7 7 7 8 8 8 8 8 8 7 7 7 6 6 6 6 6 6 6 6 6
6 6 6 6 6 7 6 7 7 6 7 7 7 7 7 8 8 7 7 7 8 7 7 6 6 6 6 6 6 6 6 6
6 6 6 5 5 6 6 6 6 6 6 6 7 7 7 7 7 7 7 7 7 7 7 7 6 6 6 6 6 6 6 5
5 5 5 5 5 5 5 5 6 5 6 6 6 6 7 7 6 6 7 7 7 7 7 6 6 6 6 5 6 6 6 6
5 5 5 4 4 4 4 4 4 5 5 6 5 5 5 6 6 6 6 6 6 6 6 6 6 6 6 6 6 6 6 6
5 4 4 4 4 4 4 4 4 4 4 4 5 5 5 4 5 6 6 5 5 5 6 6 6 6 6 6 6 6 6 6
4 4 4 4 4 4 4 4 4 4 4 4 4 4 4 4 4 4 5 5 5 5 5 5 6 6 6 6 5 5 6 6
3 4 3 3 4 4 3 3 3 3 3 4 4 3 4 4 4 4 4 5 4 5 5 5 5 5 5 5 5 4 5 5
2 2 3 3 4 4 4 4 4 3 3 3 3 3 3 3 4 4 4 4 4 4 5 4 5 5 4 3 4 4 4 4
2 2 3 3 3 3 3 4 3 3 3 2 3 2 2 2 3 4 3 3 3 4 4 3 4 3 4 3 3 3 3 3
2 2 2 2 2 2 2 2 2 2 2 1 0 1 1 2 2 2 3 3 3 3 3 4 3 4 2 2 2 2 3 3
1 1 1 1 1 0 0 0 1 1 1 0 -0 -0 -0 0 1 1 2 2 3 2 2 3 3 3 3 3 2 2 2 2
-0 -0 -0 0 -0 -0 -1 -1 -1 -1 -2 -1 -1 -1 -2 -1 -1 -1 1 1 1 2 2 3 2 2 2 5 3 3 2 2
-1 -1 -1 -1 -1 -1 -1 -1 -2 -2 -2 -2 -2 -2 -2 -2 -2 -2 -1 -1 1 1 1 2 2 2 3 3 3 4 3 1
-1 -1 -1 -1 -1 -1 -2 -2 -2 -2 -2 -3 -3 -2 -2 -2 -2 -2 -2 -1 -1 0 1 1 2 2 2 2 3 3 2 3
-2 -2 -2 -2 -2 -2 -3 -3 -3 -3 -4 -4 -4 -4 -3 -3 -3 -4 -4 -2 -1 -1 -0 1 2 1 1 2 2 2 1 1

GFSFLT2_700_temp_162.txt.gz
Temp
9 9 9 9 9 10 10 10 9 9 8 8 9 9 8 8 8 8 8 8 7 7 7 7 6 6 6 6 6 6 5 5
8 8 8 8 8 9 9 9 9 9 9 8 8 8 8 8 8 7 7 7 7 7 6 6 6 6 6 6 6 6 6 5
7 7 7 8 8 8 8 8 9 9 8 8 8 8 7 7 8 8 7 7 7 7 6 6 6 6 6 6 5 6 6 5
7 7 7 7 7 7 7 7 7 7 8 8 8 8 7 7 7 7 7 7 7 7 6 6 6 6 6 6 5 5 5 5
6 6 5 5 6 6 6 6 6 6 6 7 7 7 7 7 7 7 6 6 7 6 6 6 6 6 6 6 6 6 5 5
6 5 5 5 5 5 5 5 5 6 5 5 6 6 7 7 7 7 6 6 6 6 6 5 5 5 6 6 6 5 5 5
5 5 5 4 4 4 4 5 5 5 5 5 5 5 5 6 6 7 7 6 6 6 5 5 5 5 5 6 6 6 5 5
5 5 5 4 4 4 4 4 4 4 5 5 5 5 5 4 5 5 6 6 6 6 6 5 5 5 5 5 6 6 6 5
5 4 4 4 4 4 4 4 4 4 4 4 5 4 4 4 4 4 4 5 6 6 5 5 5 5 5 5 6 6 6 6
5 4 4 4 4 4 4 4 4 4 4 4 4 4 5 5 4 4 4 4 3 4 5 5 5 5 5 5 5 5 5 6
4 4 4 4 3 3 3 4 4 4 4 4 4 4 4 4 5 5 4 4 3 3 3 4 5 5 5 5 5 4 5 5
3 3 3 3 2 2 3 3 3 3 3 3 3 4 3 4 4 4 4 4 4 3 3 3 4 4 5 5 5 4 4 5
2 2 2 2 2 3 3 2 2 2 3 3 3 2 3 3 3 3 3 4 4 4 3 3 4 3 4 5 5 4 4 4
2 2 2 2 2 2 2 2 2 2 2 2 2 1 1 1 2 3 2 2 3 3 4 3 4 3 2 2 3 4 3 3
1 1 1 1 0 1 1 1 1 1 1 1 0 0 -0 -1 -0 0 1 1 1 2 3 3 3 3 3 3 3 3 1 4
-1 -1 -1 -0 0 0 0 1 1 0 0 -0 -1 -1 -1 -1 -1 -1 -1 -0 1 0 1 2 2 3 3 3 2 2 1 2
-2 -1 -1 -1 -0 -0 -0 -0 -0 -0 -1 -1 -1 -1 -2 -2 -2 -2 -2 -2 -1 -1 -0 -0 1 2 2 3 2 2 2 2
-2 -2 -1 -1 -1 -1 -1 -1 -1 -1 -1 -2 -2 -2 -3 -3 -3 -3 -2 -2 -2 -2 -2 -1 -1 -0 1 2 3 2 2 2
-2 -2 -2 -2 -2 -2 -2 -2 -2 -3 -3 -3 -3 -4 -4 -4 -4 -4 -3 -3 -3 -3 -2 -2 -1 -1 -1 1 1 2 2 2
-3 -3 -3 -3 -3 -3 -4 -4 -4 -4 -5 -5 -4 -4 -4 -5 -5 -5 -5 -5 -4 -4 -3 -3 -3 -2 -1 -1 0 1 1 2

GFSFLT2_700_temp_165.txt.gz
Temp
7 7 7 7 7 7 8 8 8 8 9 9 9 9 8 8 8 8 7 7 7 7 7 6 6 6 6 6 6 6 6 5
7 7 7 7 7 7 7 7 7 7 8 8 8 8 8 8 8 7 7 7 7 6 7 6 6 6 6 6 6 6 6 5
7 7 6 6 6 6 6 6 6 7 7 7 7 8 7 7 6 7 7 7 6 6 6 6 6 6 6 6 6 6 6 5
6 6 5 5 5 5 5 5 5 5 6 6 6 6 6 6 6 6 7 7 6 6 6 6 6 6 6 5 5 5 6 5
6 6 5 5 5 5 5 5 5 5 5 5 5 5 5 6 6 6 6 6 6 6 6 6 6 6 6 5 5 5 5 6
6 6 5 5 5 5 5 5 5 5 5 5 5 5 5 5 5 5 6 6 5 6 6 6 6 6 6 6 6 5 5 5
6 6 5 5 4 4 4 4 4 4 5 5 5 5 5 5 4 4 5 5 5 5 5 5 6 6 6 6 6 6 5 5
5 5 5 5 4 4 4 4 4 4 4 4 4 4 5 5 5 5 4 4 4 4 4 5 5 5 6 6 6 6 6 5
5 5 5 4 4 4 4 4 4 4 4 4 4 4 4 4 4 4 5 5 5 4 4 4 4 5 5 5 5 6 6 6
4 4 4 4 3 3 3 3 3 3 3 3 3 3 4 4 4 4 4 5 4 4 4 4 3 4 5 5 5 5 6 6
3 3 3 2 2 2 2 2 2 2 3 3 3 3 3 3 3 4 4 4 4 5 4 4 4 4 4 4 5 5 5 6
2 2 2 2 1 1 1 1 1 1 2 2 2 2 3 3 3 3 3 4 4 4 4 4 4 3 3 4 5 5 5 5
1 1 1 0 1 1 1 1 1 1 1 1 1 1 2 1 1 1 2 3 3 2 3 4 3 3 3 4 4 3 3 5
0 0 0 0 0 0 0 0 0 1 1 1 1 0 0 0 0 0 0 0 1 1 1 2 3 2 2 3 4 4 3 2
-1 -1 -1 -1 -1 -1 -0 -0 0 0 0 0 -0 -0 -0 -0 -0 -1 -1 -1 -1 0 1 1 1 1 0 1 2 2 1 2
-1 -2 -1 -1 -1 -1 -1 -0 -1 -1 -1 -1 -1 -1 -1 -2 -2 -2 -2 -2 -2 -2 -1 -0 0 -0 0 -0 0 0 2 1
-2 -2 -2 -2 -2 -2 -1 -1 -1 -1 -2 -2 -2 -2 -3 -3 -3 -3 -3 -3 -3 -3 -2 -2 -2 -1 -1 -1 -0 -0 -1 1
-2 -2 -2 -2 -2 -2 -2 -2 -2 -2 -2 -2 -3 -3 -3 -4 -4 -4 -4 -4 -4 -4 -3 -3 -3 -2 -2 -2 -2 -1 -1 -1
-3 -3 -3 -3 -3 -3 -3 -3 -3 -3 -3 -3 -4 -4 -4 -4 -4 -4 -4 -5 -5 -5 -5 -4 -4 -3 -3 -3 -2 -2 -2 -1
-3 -3 -3 -3 -3 -4 -4 -4 -4 -4 -4 -4 -4 -4 -4 -4 -4 -5 -5 -5 -6 -6 -5 -5 -5 -4 -4 -4 -3 -3 -3 -2

GFSFLT2_700_temp_171.txt.gz
Temp
7 7 7 7 7 6 6 6 6 6 6 6 6 6 6 6 6 7 7 7 7 7 7 6 7 6 6 6 6 6 6 6
7 7 6 6 6 6 6 6 6 6 6 6 6 6 6 6 6 6 6 6 6 6 6 6 6 6 6 6 6 6 6 6
7 7 6 6 6 6 6 5 5 5 5 5 5 5 5 5 5 5 5 5 5 5 6 5 5 6 6 6 6 6 5 6
7 7 6 6 6 6 5 5 6 5 5 5 5 5 5 5 5 5 4 4 5 5 5 5 5 5 5 5 6 6 5 5
6 6 6 6 5 5 5 5 5 5 5 4 4 4 4 5 5 5 5 5 5 5 5 5 5 5 5 4 4 3 4 5
6 6 6 5 5 5 5 4 4 4 4 4 4 4 4 4 4 4 4 4 5 5 5 5 5 5 5 5 5 4 5 3
6 6 5 5 5 4 4 4 4 4 4 4 4 4 4 4 4 4 4 4 4 4 5 5 5 5 5 5 4 4 5 5
6 5 5 4 4 4 4 4 3 3 3 3 4 4 4 4 4 4 4 4 4 5 5 5 5 5 5 5 5 4 4 4
5 5 5 4 4 3 3 3 3 3 3 3 3 3 4 3 3 4 4 4 4 4 5 5 5 5 5 5 5 5 4 4
5 5 4 4 3 3 3 2 2 2 2 2 2 2 3 3 3 4 4 4 4 4 4 4 4 4 5 5 5 5 5 4
4 4 4 3 3 2 2 2 2 2 2 2 3 3 2 2 2 2 2 2 2 3 3 3 3 3 4 4 4 4 4 5
4 3 3 2 2 1 1 1 1 1 1 1 1 2 2 2 2 2 1 1 1 1 1 1 1 1 2 3 3 3 3 3
3 2 2 2 1 0 0 0 0 0 1 1 1 1 1 1 0 0 0 -0 0 0 0 0 -0 -0 0 1 1 2 2 3
2 2 1 0 -0 -0 -0 -0 0 0 0 0 0 0 -0 -0 -0 -0 -1 -1 -1 -1 -1 -1 -1 -1 -1 0 1 2 1 1
1 1 -0 -1 -1 -1 -1 -1 -1 -1 -1 -1 -1 -1 -1 -1 -1 -1 -1 -1 -2 -2 -2 -2 -1 -2 -2 -2 -1 -0 1 1
0 -0 -1 -1 -1 -1 -1 -1 -1 -2 -2 -2 -2 -2 -2 -2 -2 -2 -2 -2 -2 -2 -2 -2 -2 -2 -2 -2 -2 -2 -2 0
-0 -1 -1 -2 -2 -2 -2 -2 -2 -3 -3 -3 -3 -3 -3 -2 -2 -3 -3 -3 -3 -3 -2 -3 -3 -2 -2 -3 -3 -3 -3 -3
-1 -2 -2 -2 -2 -2 -3 -3 -3 -3 -3 -3 -3 -3 -3 -3 -3 -3 -3 -3 -3 -3 -3 -3 -3 -4 -4 -4 -4 -4 -4 -4
-2 -2 -2 -2 -2 -3 -3 -3 -3 -4 -4 -4 -4 -4 -4 -4 -4 -4 -4 -4 -4 -4 -4 -4 -4 -4 -5 -5 -5 -5 -6 -6
-2 -2 -3 -3 -3 -3 -3 -4 -4 -4 -4 -5 -5 -4 -4 -4 -4 -4 -4 -4 -4 -4 -4 -4 -4 -5 -6 -5 -5 -6 -6 -6